Location: Be?i?
(36.9044°N, 30.1006°E)
Time: 10:02:58
(UTC+00:00)

Meteor 2-3 Rocket - Pass Details

Date: 05 August 2024
Orbit: 844 x 881 km, 81.2° (Epoch: 13 September)

Event Time Altitude Azimuth Distance (km) Brightness Sun altitude
Exits shadow 19:22:33 29° 203° (SSW) 1,517 4.8 -24.1°
Maximum altitude 19:25:29 69° 280° (W) 905 3.9 -24.5°
Drops below altitude 10° 19:31:05 10° 4° (N) 2,474 6.7 -25.2°
Sets 19:33:31 0° 6° (N) 3,411 7.5 -25.6°
